Location: Arrington
(35.8681°N, 86.7092°W)
Time: 13:39:50
(UTC+00:00)

Cosmos 2360 Rocket - Pass Details

Date: 23 November 2019
Orbit: 832 x 847 km, 71.0° (Epoch: 10 December)

Event Time Altitude Azimuth Distance (km) Brightness Sun altitude
Exits shadow 10:08:43 21° 4° (N) 1,824 3.9 -28.5°
Maximum altitude 10:12:06 41° 63° (ENE) 1,205 3.3 -27.8°
Drops below altitude 10° 10:17:24 10° 133° (SE) 2,458 5.3 -26.8°
Sets 10:19:58 0° 141° (SE) 3,387 6.0 -26.2°
